Weather History for Waupaca, WI

Change the Weather History Date:

Thursday, February 20, 2014

  Actual Average Record
Temperature  
Mean Temperature 34 °F -  
Max Temperature 39 °F 33 °F 57 °F (1981)
Min Temperature 29 °F 13 °F -14 °F (1966)
Degree Days  
Heating Degree Days 31    
Moisture  
Dew Point 29 °F    
Average Humidity 81    
Maximum Humidity 93    
Minimum Humidity 67    
Precipitation  
Precipitation 0.45 in - - ()
Sea Level Pressure  
Sea Level Pressure 29.50 in    
Wind  
Wind Speed 7 mph (East)    
Max Wind Speed 26 mph    
Max Gust Speed 36 mph    
Visibility 7 miles    
Events Rain , Snow    
Averages and records for this station are not official NWS values.
T = Trace of Precipitation, MM = Missing Value Source: NWS Daily Summary

Daily Weather History Graph

Daily Weather History Graph

Search for Another Location

Airport:

Trip Planner

Search our weather history database for the weather conditions in past years. The results will help you decide how hot, cold, wet, or windy it might be!

Date:

Astronomy

Feb. 20, 2014 Rise Set
Actual Time 6:48 AM CST 5:32 PM CST
Civil Twilight 6:18 AM CST 6:01 PM CST
Nautical Twilight 5:44 AM CST 6:35 PM CST
Astronomical Twilight 5:11 AM CST 7:09 PM CST
Moon 11:41 PM CST (2/20) 9:17 AM CST (2/20)
Length of Visible Light 11h 43m
Length of Day
10h 44m
Waning Gibbous, 70% of the Moon is Illuminated
Feb 20
Waning Gibbous
Feb 22
Last Quarter
Mar 1
New
Mar 8
First Quarter
Mar 16
Full

Hourly Weather History & Observations

Time (CST) Temp. Windchill Dew Point Humidity Pressure Visibility Wind Dir Wind Speed Gust Speed Precip Events Conditions
12:15 AM 32.0 °F 26.4 °F 22.1 °F 67% 29.86 in 10.0 mi SSE 5.8 mph - N/A   Mostly Cloudy
12:35 AM 32.0 °F - 22.5 °F 68% 29.85 in 10.0 mi Calm Calm - N/A   Mostly Cloudy
12:55 AM 30.4 °F - 22.3 °F 72% 29.86 in 10.0 mi Calm Calm - N/A   Overcast
1:15 AM 30.2 °F - 22.3 °F 72% 29.86 in 10.0 mi Calm Calm - N/A   Mostly Cloudy
1:35 AM 29.3 °F - 22.3 °F 75% 29.86 in 10.0 mi Calm Calm - N/A   Mostly Cloudy
1:55 AM 29.1 °F 24.1 °F 22.6 °F 77% 29.85 in 10.0 mi East 4.6 mph - N/A   Mostly Cloudy
2:15 AM 29.3 °F 24.3 °F 22.6 °F 76% 29.84 in 10.0 mi East 4.6 mph - N/A   Mostly Cloudy
2:35 AM 29.3 °F 24.3 °F 22.3 °F 75% 29.84 in 10.0 mi ESE 4.6 mph - N/A   Scattered Clouds
2:55 AM 29.3 °F 24.3 °F 22.5 °F 76% 29.82 in 10.0 mi ESE 4.6 mph - N/A   Mostly Cloudy
3:15 AM 29.1 °F 24.1 °F 22.6 °F 77% 29.80 in 10.0 mi East 4.6 mph - N/A   Scattered Clouds
3:35 AM 29.8 °F 24.9 °F 22.1 °F 73% 29.80 in 10.0 mi East 4.6 mph - N/A   Clear
3:55 AM 30.6 °F 25.8 °F 22.8 °F 73% 29.79 in 10.0 mi East 4.6 mph - N/A   Scattered Clouds
4:15 AM 31.1 °F - 23.0 °F 72% 29.79 in 10.0 mi Calm Calm - N/A   Overcast
4:35 AM 31.1 °F 27.7 °F 23.4 °F 73% 29.78 in 10.0 mi ENE 3.5 mph - N/A   Overcast
4:55 AM 31.3 °F - 23.5 °F 73% 29.78 in 10.0 mi Calm Calm - N/A   Overcast
5:15 AM 31.6 °F - 23.7 °F 73% 29.77 in 10.0 mi Calm Calm - N/A   Overcast
5:35 AM 31.5 °F - 23.5 °F 73% 29.77 in 10.0 mi Calm Calm - N/A   Overcast
5:55 AM 31.1 °F - 23.4 °F 73% 29.77 in 10.0 mi Calm Calm - N/A   Mostly Cloudy
6:15 AM 31.1 °F 27.7 °F 23.9 °F 75% 29.77 in 10.0 mi East 3.5 mph - N/A   Overcast
6:35 AM 31.5 °F - 23.9 °F 74% 29.77 in 10.0 mi Calm Calm - N/A   Overcast
6:55 AM 31.6 °F 28.3 °F 23.7 °F 73% 29.76 in 10.0 mi East 3.5 mph - N/A   Overcast
7:15 AM 32.0 °F - 23.0 °F 69% 29.76 in 10.0 mi Calm Calm - N/A   Mostly Cloudy
7:35 AM 31.8 °F 28.5 °F 23.4 °F 71% 29.76 in 10.0 mi East 3.5 mph - N/A   Mostly Cloudy
7:55 AM 32.0 °F 27.5 °F 23.5 °F 71% 29.75 in 10.0 mi East 4.6 mph - N/A   Overcast
8:15 AM 34.0 °F 29.8 °F 25.0 °F 70% 29.74 in 7.0 mi East 4.6 mph - N/A Rain Light Rain
8:35 AM 34.2 °F 29.0 °F 26.8 °F 74% 29.73 in 7.0 mi ENE 5.8 mph - N/A Rain Light Rain
8:55 AM 34.3 °F 30.2 °F 28.0 °F 78% 29.73 in 3.0 mi ENE 4.6 mph - N/A Snow Light Snow
9:15 AM 34.7 °F 30.6 °F 29.1 °F 80% 29.71 in 3.0 mi NE 4.6 mph - N/A Rain Light Rain
9:35 AM 34.7 °F 29.6 °F 29.3 °F 81% 29.69 in 2.0 mi ENE 5.8 mph - N/A Snow Light Snow
9:55 AM 35.8 °F 29.4 °F 31.1 °F 83% 29.69 in 2.5 mi East 8.1 mph - N/A Snow Light Snow
10:15 AM 35.8 °F 28.8 °F 31.8 °F 86% 29.69 in 2.0 mi East 9.2 mph - N/A Snow Light Snow
10:35 AM 36.5 °F 29.2 °F 32.4 °F 85% 29.68 in 3.0 mi East 10.4 mph - N/A Rain Light Rain
10:55 AM 36.7 °F 29.4 °F 32.5 °F 85% 29.66 in 5.0 mi East 10.4 mph - N/A Rain Light Rain
11:15 AM 36.9 °F 29.1 °F 32.7 °F 85% 29.65 in 7.0 mi East 11.5 mph - N/A   Overcast
11:35 AM 37.0 °F 28.9 °F 32.9 °F 85% 29.64 in 7.0 mi East 12.7 mph 16.1 mph N/A   Overcast
11:55 AM 37.0 °F 29.3 °F 32.5 °F 84% 29.62 in 10.0 mi East 11.5 mph - N/A   Overcast
12:15 PM 37.2 °F 28.3 °F 32.5 °F 83% 29.60 in 7.0 mi East 15.0 mph - N/A   Overcast
12:35 PM 36.9 °F 28.2 °F 32.2 °F 83% 29.59 in 7.0 mi East 13.8 mph 24.2 mph N/A   Light Drizzle
12:55 PM 36.7 °F 28.4 °F 32.2 °F 84% 29.58 in 10.0 mi East 12.7 mph - N/A   Overcast
1:15 PM 36.9 °F 27.5 °F 32.2 °F 83% 29.55 in 10.0 mi East 16.1 mph 21.9 mph N/A   Overcast
1:35 PM 37.4 °F 27.8 °F 32.2 °F 81% 29.51 in 10.0 mi East 17.3 mph 26.5 mph N/A   Overcast
1:55 PM 37.8 °F 26.6 °F 32.0 °F 80% 29.48 in 10.0 mi East 24.2 mph 31.1 mph N/A   Overcast
2:15 PM 38.1 °F 27.1 °F 32.0 °F 79% 29.46 in 10.0 mi East 24.2 mph 28.8 mph N/A   Overcast
2:35 PM 37.8 °F 26.3 °F 32.0 °F 80% 29.44 in 10.0 mi East 25.3 mph 35.7 mph N/A   Overcast
2:55 PM 37.4 °F 26.6 °F 32.0 °F 81% 29.42 in 10.0 mi East 21.9 mph 29.9 mph N/A   Overcast
3:15 PM 36.9 °F 24.9 °F 32.0 °F 83% 29.41 in 10.0 mi East 26.5 mph 32.2 mph N/A   Overcast
3:35 PM 36.7 °F 26.6 °F 32.0 °F 83% 29.37 in 10.0 mi East 18.4 mph 34.5 mph N/A   Overcast
3:55 PM 36.5 °F 26.3 °F 32.0 °F 84% 29.36 in 7.0 mi East 18.4 mph 26.5 mph N/A   Overcast
4:15 PM 36.0 °F 25.0 °F 32.0 °F 86% 29.33 in 4.0 mi East 20.7 mph 28.8 mph N/A Rain Light Rain
4:35 PM 35.8 °F 25.7 °F 32.0 °F 86% 29.33 in 5.0 mi East 17.3 mph 28.8 mph N/A Rain Light Rain
4:55 PM 35.8 °F 25.7 °F 32.2 °F 87% 29.31 in 1.5 mi East 17.3 mph 26.5 mph 0.11 in Snow Light Snow
5:15 PM 35.8 °F 25.7 °F 32.2 °F 87% 29.31 in 2.5 mi East 17.3 mph 26.5 mph 0.06 in Snow Light Snow
5:35 PM 35.8 °F 27.3 °F 32.2 °F 87% 29.27 in 5.0 mi ENE 12.7 mph - 0.11 in Rain Light Rain
5:55 PM 35.8 °F 27.8 °F 32.4 °F 87% 29.24 in 3.0 mi ENE 11.5 mph 17.3 mph 0.15 in Rain Light Rain
6:15 PM 35.8 °F 27.8 °F 32.5 °F 88% 29.25 in 3.0 mi East 11.5 mph 23.0 mph 0.09 in Snow Light Snow
6:35 PM 35.8 °F 27.8 °F 32.5 °F 88% 29.21 in 4.0 mi ENE 11.5 mph - 0.14 in Rain Rain
6:55 PM 35.8 °F 27.3 °F 32.5 °F 88% 29.16 in 7.0 mi ENE 12.7 mph 20.7 mph 0.15 in Rain Light Rain
7:15 PM 35.8 °F 27.3 °F 32.9 °F 89% 29.14 in 10.0 mi ENE 12.7 mph 19.6 mph N/A   Overcast
7:35 PM 35.8 °F 26.9 °F 32.9 °F 89% 29.11 in 10.0 mi East 13.8 mph 20.7 mph N/A   Overcast
7:55 PM 35.8 °F 28.3 °F 32.5 °F 88% 29.09 in 2.5 mi East 10.4 mph 20.7 mph N/A Rain Light Rain
8:15 PM 35.8 °F 27.3 °F 32.9 °F 89% 29.07 in 10.0 mi East 12.7 mph 20.7 mph N/A Rain Light Rain
8:35 PM 36.3 °F 27.5 °F 33.3 °F 89% 29.05 in 2.0 mi East 13.8 mph 18.4 mph 0.01 in Rain Light Rain
8:55 PM 36.5 °F 29.2 °F 33.6 °F 89% 29.02 in 2.0 mi East 10.4 mph 16.1 mph 0.02 in Rain Rain
9:15 PM 36.7 °F 28.4 °F 34.0 °F 90% 29.00 in 2.5 mi East 12.7 mph - 0.01 in Rain Light Rain
9:35 PM 37.6 °F 32.3 °F 35.2 °F 91% 28.98 in 3.0 mi SE 6.9 mph - 0.01 in Rain Light Rain
9:55 PM 38.3 °F 30.9 °F 35.8 °F 91% 28.96 in 3.0 mi ESE 11.5 mph - 0.02 in Rain Light Rain
10:15 PM 39.2 °F 32.5 °F 37.2 °F 93% 28.94 in 4.0 mi SSE 10.4 mph 17.3 mph N/A   Overcast
10:35 PM 38.5 °F 30.7 °F 36.1 °F 91% 28.93 in 4.0 mi SSE 12.7 mph - N/A   Overcast
10:55 PM 38.1 °F 29.8 °F 35.6 °F 91% 28.93 in 4.0 mi South 13.8 mph - N/A   Overcast
11:15 PM 37.9 °F 27.9 °F 35.6 °F 91% 28.93 in 5.0 mi SSW 19.6 mph 24.2 mph N/A Rain Light Rain
11:35 PM 36.7 °F 25.1 °F 33.8 °F 89% 28.94 in 10.0 mi SW 24.2 mph 29.9 mph N/A   Overcast
11:55 PM 35.8 °F 25.7 °F 32.4 °F 87% 28.94 in 7.0 mi SW 17.3 mph 26.5 mph N/A   Light Drizzle